GFSCGP_sfc_thetae_096.txt.gz
Theta_e
300 293 291 293 295 295 293 291 290 292 296 293 293 294 296 298 298 297 298 298 300 302 305 306 305 306 312 319 322 325 323 322 325 323 317 313 311 309 308 310 311 314 319 320
295 291 297 298 297 294 293 289 289 293 296 293 293 293 297 298 299 300 299 300 300 301 303 305 304 305 309 317 320 322 323 323 325 321 317 313 311 308 306 305 307 308 310 311
292 294 299 296 294 292 291 289 289 289 293 293 290 289 293 297 299 301 302 303 302 302 302 304 303 303 306 310 317 319 321 322 322 320 317 303 301 300 299 300 300 302 304 304
294 298 295 293 292 294 288 293 293 291 288 283 291 281 290 295 296 298 300 300 300 301 303 304 303 302 303 305 311 317 317 318 316 314 311 304 303 304 303 301 300 299 300 301
292 293 292 292 293 295 291 294 292 291 288 287 287 283 287 293 292 295 298 298 300 302 302 302 302 303 302 305 307 312 314 314 312 311 308 304 303 306 303 301 298 296 296 296
294 296 295 294 294 295 296 293 292 290 288 281 286 286 284 289 293 295 297 298 301 299 298 299 300 302 301 304 306 309 310 310 308 309 305 303 303 304 300 294 295 294 293 293
293 292 294 296 292 294 293 289 281 280 279 279 287 285 288 294 296 296 298 299 299 299 297 296 297 298 299 302 305 306 307 306 306 306 304 305 305 303 300 296 294 291 290 289
285 284 292 294 293 290 290 290 282 276 278 280 284 282 288 296 298 299 301 298 300 299 299 298 298 298 299 302 304 304 304 304 305 304 303 304 305 302 301 298 297 292 293 291
286 286 294 294 295 295 289 286 292 284 277 278 283 288 293 296 297 298 298 298 298 298 298 298 299 299 299 301 302 303 303 303 303 302 302 302 303 301 299 298 296 293 291 290
291 285 292 291 294 293 291 293 284 284 274 274 280 281 286 292 293 296 296 298 297 299 298 298 298 298 299 301 301 303 303 302 302 302 302 301 300 299 297 295 292 291 286 285
293 290 286 290 288 289 289 287 289 289 285 278 277 281 291 293 296 295 297 299 299 298 298 297 297 298 299 300 300 301 301 301 300 300 300 299 297 297 293 291 288 286 284 284
295 292 283 287 293 295 293 290 290 283 281 283 282 285 295 296 296 297 296 296 295 296 298 296 296 297 297 298 299 299 299 299 299 299 299 297 296 294 290 288 285 284 284 284
296 289 280 284 289 291 289 291 293 292 287 284 281 285 294 295 294 294 294 293 295 294 295 295 295 295 296 297 297 297 298 298 298 298 297 295 293 291 289 287 284 283 283 282
296 289 287 283 288 291 287 288 291 291 285 285 285 288 293 293 295 294 293 294 294 294 295 294 294 294 295 297 297 297 297 298 298 297 296 294 292 290 288 285 283 282 281 281
293 284 287 288 290 290 286 287 290 289 290 286 289 290 294 296 296 298 295 295 293 293 293 294 294 294 295 295 296 296 296 297 298 297 296 294 291 289 286 283 282 281 281 281
291 284 286 283 288 289 286 289 288 290 291 290 290 289 297 298 299 297 298 296 295 296 296 295 295 295 294 295 295 296 296 296 296 296 293 291 289 287 285 282 281 280 280 280
286 285 283 276 285 284 278 283 287 289 291 292 288 293 298 296 297 297 299 298 298 298 299 297 296 295 294 296 295 295 296 294 292 290 289 288 287 285 283 282 281 280 279 280
285 285 285 278 281 275 283 291 293 291 292 294 294 295 294 296 298 297 298 297 296 298 299 299 298 297 296 295 295 295 292 291 290 288 288 287 285 284 282 281 280 279 279 279
291 285 279 276 272 280 283 286 286 287 286 287 287 288 289 292 294 294 293 294 294 295 296 295 295 296 297 297 295 292 290 290 289 289 287 286 285 283 282 280 280 279 279 279
286 287 282 274 270 266 280 285 290 293 281 285 287 287 286 290 285 291 291 291 293 293 292 291 290 290 290 290 289 289 288 287 287 288 287 286 285 284 282 281 280 279 278 278
280 281 278 279 277 277 282 284 288 281 280 284 286 286 286 284 287 288 290 290 290 291 291 291 287 287 286 286 286 286 286 285 286 284 284 283 284 284 283 281 280 279 279 280
278 277 277 280 278 275 283 285 284 285 287 286 284 285 285 286 287 288 288 288 289 289 287 286 284 285 284 284 283 284 284 285 283 283 283 283 283 283 282 281 279 279 279 279
272 278 276 279 277 284 283 285 289 289 286 284 283 285 286 285 287 288 288 288 288 287 285 284 282 282 282 282 282 281 282 282 281 280 279 280 280 280 281 280 279 278 278 277
278 281 276 276 280 282 284 286 286 287 284 285 286 285 286 286 286 286 287 287 286 285 284 281 281 282 281 280 280 280 280 281 279 278 276 277 279 278 278 281 280 279 278 277
278 280 276 276 281 282 285 288 287 286 286 285 285 285 286 285 286 286 286 286 286 284 281 279 279 279 279 279 278 276 277 277 277 277 277 277 278 278 279 279 280 279 280 280
280 279 277 274 282 282 282 285 283 283 284 285 285 285 285 284 285 284 284 285 284 285 280 278 277 276 276 275 276 278 280 280 280 278 279 279 279 277 276 277 277 284 283 284

GFSCGP_sfc_thetae_102.txt.gz
Theta_e
293 288 285 288 288 286 287 286 284 287 292 291 290 289 292 294 293 293 293 293 294 296 301 300 299 301 308 318 323 323 324 325 326 325 326 326 326 325 328 329 327 324 323 320
289 285 290 291 290 289 287 285 284 288 291 290 288 289 291 293 294 296 296 294 294 294 295 298 299 297 302 313 321 322 324 324 326 326 325 321 324 316 319 315 323 324 321 320
286 289 294 292 289 288 286 285 285 286 287 287 287 284 287 290 292 295 296 296 296 295 295 296 297 297 298 307 318 321 323 324 326 324 312 306 308 308 308 308 309 312 321 319
289 293 291 289 289 289 284 289 288 287 284 280 285 278 284 288 291 292 294 295 292 295 296 296 297 296 297 304 315 321 323 322 323 315 316 314 318 313 310 310 307 307 309 318
287 290 290 288 289 290 287 291 288 286 283 282 281 280 283 286 287 291 293 293 293 292 294 296 296 297 297 301 311 317 319 320 318 317 317 316 315 314 307 308 307 305 304 306
289 292 291 291 291 290 292 289 288 285 283 278 282 282 279 284 288 289 291 293 295 295 295 296 296 297 297 302 308 313 316 317 315 317 315 316 312 308 306 306 307 305 302 301
288 289 291 292 289 291 289 285 277 277 276 276 281 280 282 288 291 290 292 294 295 296 296 296 297 296 297 300 306 309 313 311 313 315 312 313 311 308 306 307 308 304 300 296
284 282 290 292 290 288 286 285 278 272 274 277 282 279 285 291 294 294 295 296 296 295 295 295 295 296 298 299 300 305 307 308 308 308 305 305 304 305 308 306 306 304 303 302
283 282 289 290 292 292 287 284 287 281 270 274 279 283 288 290 292 292 293 293 293 296 296 296 296 297 297 298 299 300 302 302 303 302 301 301 303 301 299 298 297 298 299 297
287 282 287 288 291 290 288 291 283 281 272 271 277 278 282 288 290 292 294 294 295 297 296 295 296 296 297 297 298 300 300 301 301 301 301 300 300 299 298 295 294 293 291 291
289 285 284 287 286 286 287 286 286 287 282 275 273 278 286 288 292 292 294 294 293 294 294 294 295 295 296 297 297 299 299 299 299 300 299 299 298 298 296 295 293 292 289 288
291 287 280 284 288 290 288 287 288 281 278 281 279 282 291 293 293 293 293 293 293 292 293 293 294 295 295 296 296 297 298 298 298 298 298 298 297 295 294 293 291 289 288 286
293 285 275 281 286 288 286 287 290 288 284 280 276 280 291 291 291 292 292 292 293 292 292 292 293 293 293 294 295 296 296 297 297 296 296 295 295 293 292 290 288 286 285 284
296 286 282 280 284 287 285 288 290 288 279 282 283 285 289 290 293 294 292 293 292 292 292 292 292 292 292 293 293 294 295 295 296 295 295 294 293 292 291 289 286 285 284 283
292 283 287 286 287 287 286 285 287 286 287 283 286 287 289 293 294 295 294 294 293 293 294 293 292 292 292 292 293 294 294 295 295 295 294 294 293 291 289 287 285 284 283 283
291 285 286 282 287 288 285 287 287 287 288 288 288 288 295 294 294 292 292 291 291 292 293 293 293 293 292 292 292 293 294 294 293 294 293 292 290 289 288 287 285 284 283 282
288 285 284 280 282 283 280 285 286 286 288 289 285 288 290 288 291 288 287 289 289 290 291 291 291 291 291 292 293 292 294 293 291 290 290 290 289 288 288 286 284 283 282 281
286 285 284 279 281 275 281 286 289 287 287 291 290 286 286 286 289 287 287 287 288 289 289 290 290 290 290 290 289 289 288 290 289 288 287 287 287 287 286 285 284 282 281 280
290 286 281 277 272 276 280 283 284 284 284 285 285 285 285 285 287 287 290 291 290 290 290 289 289 288 288 288 286 285 286 287 288 288 288 287 287 287 285 284 284 283 281 280
285 287 282 277 269 268 277 282 285 287 279 284 285 285 283 284 278 284 287 290 291 291 291 289 288 286 284 284 283 283 284 284 285 286 287 287 286 287 285 286 284 283 281 281
280 282 280 278 274 272 280 283 284 276 278 282 285 284 283 282 284 286 287 287 287 288 289 289 285 284 284 284 283 283 283 283 284 284 283 283 283 285 285 284 282 281 280 279
277 278 277 278 276 271 283 283 280 281 282 284 283 283 282 282 284 284 285 285 286 285 286 286 284 283 283 283 281 282 281 283 282 281 281 280 279 280 281 281 278 279 279 279
274 277 274 277 277 281 282 280 284 285 283 283 282 282 283 282 281 282 283 283 284 283 283 281 278 280 280 280 279 278 280 281 280 277 278 277 276 277 277 278 276 276 278 279
276 279 276 276 279 281 283 285 285 284 284 284 284 282 282 281 282 283 281 282 281 281 281 279 277 277 278 277 277 276 278 278 273 275 274 273 273 274 277 280 280 280 279 279
276 279 275 273 280 282 284 285 285 285 285 283 283 283 282 281 280 281 278 278 278 277 276 275 275 275 275 275 274 273 274 271 272 271 273 272 272 272 276 279 279 279 280 281
279 278 276 274 282 282 283 284 282 282 280 278 279 278 279 277 276 275 274 275 274 273 273 272 272 271 272 272 273 270 270 273 271 273 273 272 271 271 272 273 274 283 283 283

GFSCGP_sfc_thetae_105.txt.gz
Theta_e
292 288 285 288 288 285 286 284 283 286 290 289 288 289 291 293 292 293 292 293 293 294 298 297 297 300 308 317 320 323 323 327 330 331 329 328 327 327 328 327 323 323 323 320
289 284 289 290 289 287 285 284 283 287 290 290 288 288 291 291 293 294 294 293 293 292 292 295 296 295 298 308 318 321 323 325 328 330 331 329 328 327 328 327 326 324 323 321
285 287 291 290 287 286 284 283 284 286 286 285 285 284 286 288 290 292 293 294 294 294 294 295 295 295 295 298 310 319 321 324 326 328 324 312 314 312 311 314 323 323 322 320
287 290 290 288 287 288 283 288 288 286 284 280 284 277 283 287 289 291 292 292 291 291 293 294 294 295 294 297 303 315 320 322 324 325 322 323 323 320 320 320 319 315 321 320
286 288 288 286 288 289 287 289 287 285 282 281 281 280 282 284 286 290 290 290 291 293 292 292 293 295 296 296 302 313 317 319 321 319 321 321 321 322 313 316 314 315 309 316
287 291 290 290 289 289 291 288 286 284 282 277 281 281 279 283 286 287 288 290 293 295 295 295 296 296 296 298 302 309 314 317 318 317 319 318 320 308 309 310 313 311 309 307
287 288 290 291 288 289 287 284 277 276 275 276 280 279 281 287 288 288 290 290 293 294 294 294 295 295 297 299 303 307 310 309 314 314 314 315 315 308 310 311 313 309 304 301
283 282 289 291 289 287 285 285 278 271 273 276 281 279 284 289 291 291 291 291 293 293 294 294 294 294 295 296 298 303 305 306 308 311 311 309 308 309 310 310 310 310 308 308
283 283 289 290 291 291 286 282 285 279 269 274 278 282 287 289 290 293 294 293 292 294 294 294 295 294 295 295 297 299 300 302 304 305 306 305 305 304 308 306 306 306 304 301
286 281 286 288 290 290 288 290 283 281 273 271 276 278 281 286 290 291 291 292 292 293 293 294 294 295 296 296 297 299 300 300 301 301 301 301 301 302 304 301 300 299 298 296
288 285 283 287 285 285 286 285 285 285 281 274 272 278 285 289 291 290 290 291 291 292 292 293 294 295 295 296 296 297 298 299 299 299 299 299 299 298 298 298 296 293 291 291
289 286 280 284 288 290 289 287 286 279 277 279 279 279 288 291 292 293 292 292 291 291 292 293 294 294 294 295 296 296 297 297 297 298 298 298 297 295 295 294 293 291 290 288
292 285 275 281 285 286 284 286 288 286 283 279 277 279 289 289 290 291 292 293 292 291 291 291 291 291 292 292 293 294 295 295 296 296 296 295 295 294 293 292 291 289 288 287
295 286 283 280 282 287 284 286 288 288 279 280 282 282 287 287 290 291 291 292 290 291 291 291 291 291 291 292 291 292 293 294 295 294 294 294 294 293 293 291 289 288 287 286
292 283 285 285 287 286 286 285 287 286 286 283 285 285 287 291 291 290 290 290 289 290 290 290 290 290 290 291 291 292 292 293 293 293 293 293 293 292 291 289 288 287 286 285
292 284 285 283 287 286 283 287 285 285 285 286 285 287 292 292 290 287 287 287 287 288 288 289 289 289 289 289 289 290 289 290 290 292 291 291 291 289 289 288 287 285 284 284
288 285 284 281 284 284 280 284 286 284 286 287 285 288 290 287 286 286 286 288 287 288 288 288 288 288 288 288 289 287 287 288 288 288 288 288 288 288 288 287 284 284 283 283
286 285 284 279 280 274 281 283 287 287 286 289 286 285 286 287 286 287 287 287 287 288 289 289 288 287 287 287 287 286 285 285 286 287 287 287 285 286 286 284 285 284 282 282
290 286 281 277 270 277 281 283 284 284 284 289 287 284 284 285 285 283 288 288 288 288 289 289 288 287 286 285 284 283 283 283 284 284 284 284 285 287 286 286 285 285 283 282
286 287 282 274 270 269 277 282 287 286 279 283 286 284 284 284 279 285 286 287 288 288 288 288 288 285 285 285 283 283 283 283 282 283 283 282 282 281 282 283 282 280 279 283
281 283 281 277 273 272 280 283 286 278 280 282 284 284 284 281 283 285 284 285 285 285 285 286 284 283 283 283 282 282 282 282 282 282 282 281 280 279 279 279 277 276 276 277
279 279 279 277 273 273 282 282 281 282 282 283 283 283 283 284 284 283 283 283 283 282 282 282 280 280 281 280 280 280 280 282 280 280 279 278 277 277 278 274 274 274 276 277
275 278 277 279 277 281 282 281 284 283 282 282 282 283 283 283 282 281 282 281 280 279 280 278 275 277 277 277 277 277 279 279 278 276 276 275 274 275 274 276 280 279 279 279
276 279 277 277 279 282 283 284 284 283 283 282 282 282 283 282 282 281 279 279 278 277 276 274 273 274 275 273 275 273 275 275 272 273 274 275 274 274 272 280 280 280 279 279
277 280 275 274 280 282 283 283 283 283 282 282 281 281 280 281 279 277 275 275 275 274 273 272 272 272 271 271 271 270 270 270 273 274 274 274 273 271 273 278 280 280 281 281
278 278 278 276 283 282 284 284 283 282 280 279 280 278 276 276 275 273 273 273 272 270 270 269 269 268 268 268 268 267 263 264 268 272 275 275 273 272 272 276 278 281 284 284

GFSCGP_sfc_thetae_111.txt.gz
Theta_e
292 289 286 288 289 287 287 285 284 285 289 288 288 288 291 292 292 293 293 294 295 295 297 298 298 298 307 316 320 325 327 330 330 329 327 328 327 328 326 324 322 320 320 319
288 285 290 291 288 287 286 285 284 286 289 289 287 288 290 291 292 294 294 294 293 294 294 296 296 296 297 306 316 320 325 328 329 330 330 329 328 329 328 326 323 321 320 319
286 287 290 289 286 286 284 284 284 285 286 285 284 284 285 287 289 291 292 292 292 292 293 294 294 294 295 295 306 317 321 326 329 331 330 326 324 323 326 325 323 322 321 320
286 288 287 286 285 286 283 287 286 286 284 281 284 278 283 286 288 289 290 290 291 293 295 296 296 297 297 296 296 310 318 322 326 329 329 326 325 323 325 326 325 323 323 321
284 287 286 285 286 288 285 288 287 285 283 282 281 280 282 284 287 288 289 291 291 292 294 294 295 297 298 302 298 297 309 318 321 326 328 327 325 326 325 325 324 323 322 323
286 289 288 288 287 288 289 286 285 283 281 277 280 281 279 283 285 286 288 292 293 293 294 294 295 296 297 300 306 307 307 312 317 322 326 327 325 324 320 322 322 322 321 321
285 286 288 290 287 289 285 284 278 277 276 276 280 279 281 286 288 288 289 293 293 293 293 293 294 295 296 297 300 307 310 310 315 319 323 323 324 323 320 320 321 317 314 309
281 279 287 289 287 286 284 284 279 273 274 276 280 279 283 287 290 291 293 293 293 293 293 293 294 295 295 296 298 300 304 309 312 314 315 316 317 317 317 318 319 319 317 316
280 280 287 288 289 290 285 282 284 278 269 274 278 282 286 289 291 291 292 292 291 292 293 293 293 294 295 296 296 298 299 300 304 309 311 312 312 311 311 311 313 314 313 309
286 280 285 288 289 288 286 288 281 279 270 270 275 278 280 286 288 290 290 291 291 291 291 292 292 292 293 294 295 297 298 298 299 301 303 305 307 307 307 307 307 306 305 303
287 284 282 286 285 284 284 283 283 283 280 274 271 277 283 287 289 289 290 290 290 290 291 291 291 292 292 293 294 294 295 296 297 298 299 300 301 301 303 305 304 303 300 302
287 286 280 283 286 288 285 285 285 281 277 277 277 278 287 290 291 292 290 289 290 290 290 290 291 291 291 291 292 292 293 294 295 296 297 297 298 298 298 298 298 297 298 296
289 283 274 279 283 284 283 284 284 283 282 278 276 280 288 289 290 290 289 290 290 289 289 289 289 289 289 289 290 290 290 291 292 294 295 295 295 295 296 296 295 294 293 293
294 285 284 280 281 285 283 284 285 286 280 281 281 282 285 287 289 289 288 289 288 288 288 287 287 287 288 288 288 288 288 289 290 292 293 293 293 293 294 293 292 292 292 291
291 283 284 284 284 285 285 284 285 285 287 282 285 283 288 290 289 290 289 288 286 286 287 287 287 287 287 287 287 287 287 287 288 289 289 289 290 290 290 291 291 290 290 290
290 280 283 282 284 285 282 285 287 288 288 286 283 283 287 291 290 288 288 287 286 286 287 287 287 286 286 286 286 286 286 286 286 286 285 286 286 287 287 288 287 288 288 287
288 285 281 278 283 285 282 284 285 287 289 288 284 288 289 287 289 288 286 287 287 287 287 287 286 286 286 285 285 284 285 285 284 284 284 284 284 284 285 285 285 285 286 285
286 286 285 281 284 277 284 283 287 288 287 288 286 288 291 290 288 287 288 287 286 287 287 287 286 286 285 284 283 284 284 283 283 282 282 282 282 282 282 282 283 283 284 284
290 286 281 279 280 281 283 282 284 285 286 288 289 286 286 285 286 286 288 288 287 287 287 287 286 285 282 281 282 283 282 282 282 281 281 281 281 279 280 279 281 282 282 281
288 289 284 277 277 275 279 281 285 288 282 286 290 286 285 286 284 284 288 287 286 286 285 284 283 281 280 279 280 281 280 279 279 279 280 280 279 276 277 279 279 280 279 282
283 283 280 279 278 277 282 284 285 279 281 282 290 288 286 286 286 286 285 284 284 282 280 280 280 279 278 278 278 278 278 276 277 277 277 277 276 275 276 277 281 282 284 283
282 282 282 278 276 274 282 284 283 284 283 284 284 287 286 282 283 284 283 282 281 279 278 278 277 276 276 276 275 275 274 274 273 273 274 273 273 274 276 272 276 281 282 280
281 283 281 282 281 283 283 284 286 285 284 283 283 284 284 282 282 282 280 279 278 277 276 274 273 274 273 272 272 270 271 270 269 267 269 271 273 273 273 272 275 278 280 282
276 279 281 282 281 282 284 283 284 285 285 284 285 284 284 282 282 281 279 278 276 275 273 271 271 271 270 268 268 266 267 266 261 263 266 270 272 275 275 275 275 278 280 281
279 280 277 277 279 282 283 285 285 282 282 282 281 282 282 282 280 279 276 275 274 272 271 270 269 268 267 266 265 263 263 261 261 263 266 267 269 269 273 276 276 278 280 281
278 279 280 279 283 284 285 286 283 282 282 282 281 278 278 280 278 276 274 273 271 269 268 267 266 265 264 263 263 261 258 258 257 261 264 265 265 267 269 274 276 280 282 283

GFSCGP_sfc_thetae_114.txt.gz
Theta_e
299 296 292 295 296 293 293 291 290 292 294 294 295 295 298 301 300 301 303 304 304 305 307 305 306 307 308 318 326 330 333 333 332 331 329 328 326 328 330 332 329 327 323 322
295 292 296 297 293 292 292 290 290 291 294 294 293 294 298 299 299 302 303 303 303 303 304 303 304 304 305 307 315 323 329 333 331 331 331 330 329 329 330 332 330 327 322 322
293 293 295 294 291 291 291 290 290 290 291 292 291 292 293 295 295 297 298 299 299 299 301 304 305 305 304 304 307 315 322 328 332 331 331 329 328 326 327 326 329 327 322 320
293 292 292 292 291 293 288 292 291 290 290 287 291 286 292 294 294 295 297 298 300 301 302 303 304 307 309 309 306 306 316 322 329 331 329 328 326 324 326 328 326 327 324 321
291 290 291 290 292 293 291 292 291 291 290 289 288 287 291 290 293 294 296 297 299 300 301 301 303 304 309 313 310 304 311 319 325 330 328 327 327 328 328 328 326 324 324 323
292 294 294 293 291 293 293 292 291 290 289 284 288 287 288 291 292 293 294 298 299 300 300 301 302 304 305 311 317 314 307 315 323 326 327 326 326 326 325 325 325 324 323 322
290 291 293 294 291 292 292 291 284 282 283 282 285 284 290 292 292 294 296 299 298 299 301 301 302 303 303 305 309 312 314 314 319 323 324 324 325 325 325 325 324 323 320 316
285 283 291 294 292 290 291 291 285 279 279 282 284 283 289 292 294 295 298 298 299 300 300 300 300 301 302 303 305 307 311 312 314 317 318 320 321 322 322 322 323 323 321 320
285 285 292 292 293 294 289 287 291 282 277 282 286 288 293 293 295 296 296 297 297 298 298 299 299 300 301 302 303 305 306 307 309 311 312 314 315 315 315 315 315 316 316 312
290 284 289 291 294 293 291 293 285 286 280 279 283 284 288 290 293 294 295 296 296 296 297 298 298 299 300 300 302 304 304 304 305 307 309 310 311 311 311 310 310 309 308 306
291 289 286 290 289 289 288 287 288 289 287 283 280 284 292 294 296 295 296 296 296 297 297 297 297 297 298 299 300 300 301 302 303 305 305 306 307 308 310 310 310 310 307 306
293 290 285 287 291 292 292 290 290 285 282 284 283 285 291 293 297 298 296 295 296 297 296 296 296 296 296 296 296 297 297 298 299 302 303 303 304 304 305 305 304 304 305 303
292 289 284 284 289 290 288 289 291 291 288 284 284 286 292 295 295 296 295 296 295 295 295 295 295 295 294 294 294 295 295 296 297 299 300 300 300 301 301 301 301 300 300 300
295 289 287 283 286 290 287 288 289 289 285 286 286 289 290 292 294 294 294 296 295 294 294 294 294 293 293 293 293 293 293 294 295 295 295 295 296 296 297 298 298 298 298 298
294 286 288 290 289 291 291 289 290 287 289 286 289 288 292 295 296 296 295 295 293 292 292 292 292 292 292 292 292 292 292 292 293 292 292 291 292 292 293 293 294 295 295 295
293 287 289 285 289 289 287 290 291 290 290 290 290 289 295 299 299 296 294 293 292 292 292 292 291 290 290 290 291 291 290 290 291 290 289 289 289 289 290 290 290 292 292 292
290 287 286 284 287 287 283 287 289 290 291 291 287 292 293 293 293 295 294 292 292 292 292 291 291 291 289 289 289 290 289 289 288 288 287 286 286 286 287 288 288 288 290 290
287 288 287 285 285 278 288 292 294 290 292 293 293 293 293 294 295 296 296 293 292 292 291 291 291 290 288 288 289 289 288 287 286 285 285 284 284 284 285 286 286 287 288 288
294 289 285 283 282 286 289 287 289 288 288 293 293 292 292 291 292 291 293 294 293 292 292 292 292 287 286 285 286 286 285 285 284 283 283 283 282 281 283 283 284 285 284 285
289 293 287 283 281 279 286 287 291 293 285 296 294 292 290 291 288 293 291 291 291 292 291 289 286 284 283 282 284 284 282 281 280 279 280 281 281 279 280 282 282 283 284 285
283 284 283 283 282 285 289 288 291 284 288 290 294 295 291 292 296 294 291 290 290 289 286 285 284 282 280 280 281 280 279 277 277 277 278 278 278 278 280 280 281 283 285 284
283 282 282 284 281 280 287 287 288 292 287 289 292 293 291 289 290 289 289 287 284 282 282 282 280 278 277 277 278 277 275 274 274 273 274 274 275 277 279 278 280 281 283 284
282 288 286 286 287 288 290 291 292 290 291 288 290 290 289 288 288 287 286 284 282 280 279 278 278 275 274 274 273 274 272 271 270 268 269 272 274 276 278 278 278 280 281 282
284 284 286 287 287 286 287 288 288 289 290 289 289 289 289 287 286 284 283 281 279 277 276 275 275 274 272 271 269 269 268 267 265 267 270 272 272 273 275 278 280 279 279 279
285 284 283 284 283 286 288 288 290 287 285 286 287 287 287 286 284 283 280 279 277 275 274 274 274 272 269 269 268 266 265 264 265 267 270 271 272 272 273 275 277 279 280 281
283 283 284 286 287 289 289 290 288 285 284 285 284 283 285 285 282 281 278 277 275 273 272 271 270 269 267 267 266 264 262 262 262 267 268 269 269 271 272 273 275 279 281 282